QPF
0.00 0.00 0.00 0.00 0.00 0.00 0.00 0.00 0.00 0.00 0.00 0.00 0.00 0.00 0.00 0.00 0.00 0.00 0.00 0.00 0.00 0.00 0.00 0.00 0.00 0.00 0.01 0.01 0.02 0.05 0.06 0.09 0.11 0.10 0.10 0.11 0.11 0.10 0.08 0.08 0.10 0.14 0.15 0.15
0.00 0.00 0.00 0.00 0.00 0.00 0.00 0.00 0.00 0.00 0.00 0.00 0.00 0.00 0.00 0.00 0.00 0.00 0.00 0.00 0.00 0.00 0.00 0.00 0.00 0.00 0.01 0.01 0.03 0.04 0.06 0.08 0.09 0.08 0.06 0.06 0.06 0.04 0.04 0.05 0.07 0.09 0.09 0.07
0.00 0.00 0.00 0.00 0.00 0.00 0.00 0.00 0.00 0.00 0.00 0.00 0.00 0.00 0.00 0.00 0.00 0.00 0.00 0.00 0.00 0.00 0.00 0.00 0.00 0.00 0.00 0.01 0.02 0.04 0.06 0.09 0.10 0.10 0.08 0.05 0.03 0.02 0.03 0.04 0.06 0.06 0.04 0.02
0.00 0.00 0.00 0.00 0.00 0.00 0.00 0.00 0.00 0.00 0.00 0.00 0.00 0.00 0.00 0.00 0.00 0.00 0.00 0.00 0.00 0.00 0.00 0.00 0.00 0.00 0.00 0.00 0.01 0.02 0.06 0.10 0.11 0.12 0.11 0.06 0.03 0.04 0.03 0.04 0.05 0.05 0.03 0.01
0.00 0.00 0.00 0.00 0.00 0.00 0.00 0.00 0.00 0.00 0.00 0.00 0.00 0.00 0.00 0.00 0.00 0.00 0.00 0.00 0.00 0.00 0.00 0.00 0.00 0.00 0.00 0.00 0.01 0.02 0.05 0.11 0.14 0.14 0.12 0.07 0.05 0.05 0.05 0.05 0.05 0.05 0.03 0.01
0.00 0.00 0.01 0.00 0.00 0.00 0.00 0.00 0.00 0.00 0.00 0.00 0.00 0.01 0.00 0.00 0.00 0.00 0.00 0.00 0.00 0.00 0.00 0.00 0.00 0.00 0.00 0.00 0.01 0.02 0.06 0.12 0.16 0.17 0.14 0.12 0.09 0.08 0.06 0.06 0.06 0.05 0.04 0.03
0.00 0.00 0.00 0.00 0.00 0.00 0.01 0.02 0.00 0.00 0.00 0.00 0.02 0.02 0.01 0.00 0.00 0.00 0.00 0.00 0.00 0.00 0.00 0.00 0.00 0.00 0.01 0.00 0.01 0.01 0.04 0.11 0.17 0.19 0.17 0.15 0.14 0.10 0.07 0.05 0.05 0.05 0.04 0.04
0.00 0.01 0.01 0.00 0.00 0.01 0.02 0.01 0.01 0.01 0.01 0.01 0.01 0.01 0.01 0.01 0.01 0.00 0.01 0.01 0.00 0.00 0.00 0.01 0.01 0.01 0.01 0.01 0.00 0.01 0.03 0.09 0.15 0.17 0.15 0.15 0.13 0.10 0.09 0.07 0.04 0.04 0.05 0.04
0.00 0.01 0.01 0.00 0.00 0.01 0.01 0.01 0.01 0.01 0.01 0.02 0.02 0.02 0.02 0.02 0.02 0.01 0.02 0.02 0.01 0.02 0.02 0.02 0.03 0.03 0.03 0.02 0.01 0.01 0.03 0.09 0.15 0.17 0.19 0.19 0.12 0.09 0.09 0.06 0.04 0.03 0.03 0.03
0.01 0.01 0.00 0.00 0.01 0.01 0.01 0.01 0.01 0.01 0.01 0.02 0.03 0.03 0.03 0.03 0.03 0.03 0.04 0.03 0.04 0.05 0.07 0.09 0.09 0.08 0.06 0.03 0.01 0.01 0.03 0.08 0.13 0.15 0.17 0.17 0.15 0.12 0.09 0.06 0.05 0.04 0.03 0.02
0.02 0.01 0.01 0.01 0.01 0.00 0.00 0.01 0.01 0.01 0.01 0.02 0.03 0.04 0.04 0.04 0.04 0.05 0.05 0.05 0.08 0.12 0.16 0.18 0.18 0.15 0.09 0.04 0.02 0.02 0.03 0.06 0.09 0.12 0.14 0.16 0.14 0.14 0.14 0.11 0.06 0.06 0.05 0.02
0.01 0.01 0.02 0.02 0.01 0.01 0.01 0.01 0.01 0.01 0.02 0.02 0.03 0.04 0.04 0.04 0.04 0.04 0.05 0.06 0.08 0.11 0.14 0.18 0.23 0.22 0.16 0.09 0.04 0.03 0.03 0.06 0.08 0.09 0.11 0.12 0.12 0.08 0.04 0.05 0.02 0.01 0.01 0.01
0.01 0.01 0.01 0.01 0.01 0.01 0.01 0.01 0.01 0.01 0.01 0.02 0.02 0.03 0.03 0.04 0.04 0.04 0.05 0.06 0.09 0.13 0.15 0.17 0.21 0.24 0.21 0.15 0.08 0.05 0.04 0.06 0.07 0.08 0.09 0.09 0.09 0.07 0.02 0.00 0.00 0.00 0.00 0.00
0.00 0.00 0.00 0.00 0.00 0.00 0.00 0.00 0.00 0.00 0.01 0.01 0.02 0.02 0.03 0.04 0.05 0.06 0.06 0.07 0.09 0.12 0.16 0.19 0.23 0.27 0.26 0.21 0.14 0.07 0.04 0.04 0.05 0.07 0.07 0.06 0.06 0.06 0.05 0.02 0.00 0.00 0.00 0.00
0.00 0.00 0.00 0.00 0.00 0.00 0.00 0.00 0.00 0.00 0.00 0.00 0.01 0.01 0.02 0.03 0.03 0.04 0.05 0.07 0.08 0.10 0.12 0.16 0.23 0.29 0.30 0.28 0.20 0.11 0.05 0.03 0.02 0.02 0.02 0.03 0.03 0.03 0.03 0.03 0.02 0.01 0.00 0.00
0.00 0.00 0.00 0.00 0.00 0.00 0.00 0.00 0.00 0.00 0.00 0.00 0.00 0.01 0.01 0.02 0.02 0.03 0.04 0.07 0.09 0.11 0.12 0.15 0.19 0.25 0.34 0.35 0.28 0.16 0.07 0.02 0.02 0.01 0.01 0.01 0.01 0.01 0.02 0.03 0.03 0.03 0.02 0.00
0.00 0.00 0.00 0.00 0.00 0.00 0.00 0.00 0.00 0.00 0.00 0.00 0.00 0.01 0.01 0.02 0.03 0.03 0.04 0.06 0.09 0.10 0.11 0.15 0.18 0.23 0.33 0.38 0.35 0.23 0.11 0.03 0.01 0.01 0.00 0.00 0.00 0.00 0.00 0.01 0.01 0.02 0.01 0.00
0.00 0.00 0.00 0.00 0.00 0.00 0.00 0.00 0.00 0.00 0.00 0.01 0.01 0.02 0.03 0.04 0.05 0.05 0.05 0.05 0.07 0.08 0.09 0.11 0.17 0.24 0.33 0.39 0.35 0.27 0.16 0.05 0.01 0.00 0.00 0.00 0.00 0.00 0.00 0.00 0.00 0.00 0.01 0.00
0.00 0.00 0.00 0.00 0.00 0.00 0.00 0.00 0.01 0.01 0.02 0.03 0.04 0.05 0.06 0.06 0.07 0.06 0.06 0.07 0.07 0.08 0.12 0.15 0.18 0.22 0.30 0.39 0.39 0.29 0.19 0.08 0.02 0.00 0.00 0.00 0.00 0.00 0.00 0.00 0.00 0.00 0.00 0.00
0.00 0.00 0.00 0.00 0.00 0.00 0.00 0.01 0.03 0.05 0.05 0.07 0.08 0.08 0.08 0.07 0.07 0.07 0.08 0.09 0.09 0.11 0.15 0.19 0.19 0.19 0.26 0.38 0.42 0.33 0.19 0.09 0.03 0.01 0.00 0.00 0.00 0.00 0.00 0.00 0.00 0.00 0.00 0.00
0.00 0.00 0.00 0.00 0.00 0.00 0.01 0.04 0.07 0.08 0.08 0.08 0.09 0.09 0.08 0.07 0.07 0.09 0.11 0.10 0.11 0.13 0.16 0.18 0.18 0.20 0.26 0.40 0.43 0.36 0.21 0.09 0.04 0.02 0.01 0.00 0.00 0.00 0.00 0.00 0.00 0.00 0.00 0.00
0.00 0.00 0.00 0.00 0.01 0.02 0.03 0.06 0.08 0.10 0.09 0.09 0.09 0.09 0.09 0.08 0.08 0.08 0.09 0.10 0.11 0.11 0.13 0.18 0.21 0.24 0.27 0.37 0.39 0.33 0.22 0.10 0.05 0.02 0.01 0.00 0.00 0.00 0.00 0.00 0.00 0.00 0.00 0.00
0.00 0.00 0.01 0.01 0.03 0.04 0.04 0.05 0.08 0.11 0.12 0.12 0.12 0.12 0.12 0.12 0.11 0.10 0.07 0.07 0.10 0.09 0.12 0.16 0.22 0.26 0.26 0.27 0.30 0.28 0.20 0.11 0.05 0.03 0.01 0.00 0.00 0.00 0.00 0.00 0.00 0.00 0.00 0.00
0.00 0.00 0.01 0.01 0.03 0.04 0.05 0.07 0.09 0.10 0.12 0.13 0.12 0.13 0.14 0.15 0.12 0.09 0.08 0.06 0.05 0.05 0.07 0.11 0.13 0.16 0.17 0.18 0.22 0.22 0.17 0.10 0.06 0.03 0.01 0.01 0.00 0.00 0.00 0.00 0.00 0.00 0.00 0.00
0.00 0.01 0.01 0.02 0.05 0.07 0.11 0.13 0.12 0.13 0.16 0.16 0.14 0.15 0.16 0.16 0.14 0.11 0.08 0.07 0.05 0.02 0.03 0.05 0.06 0.09 0.10 0.11 0.14 0.14 0.11 0.08 0.05 0.03 0.02 0.01 0.00 0.00 0.00 0.00 0.00 0.00 0.00 0.00
0.00 0.01 0.01 0.02 0.05 0.10 0.14 0.16 0.18 0.21 0.25 0.27 0.25 0.23 0.20 0.15 0.12 0.11 0.08 0.06 0.04 0.02 0.03 0.03 0.03 0.04 0.06 0.07 0.08 0.08 0.07 0.06 0.04 0.03 0.01 0.01 0.01 0.00 0.00 0.00 0.00 0.00 0.00 0.00
0.00 0.01 0.01 0.02 0.04 0.07 0.10 0.14 0.20 0.27 0.32 0.37 0.40 0.34 0.26 0.17 0.11 0.09 0.07 0.04 0.03 0.03 0.03 0.02 0.02 0.02 0.02 0.04 0.05 0.05 0.04 0.03 0.03 0.02 0.02 0.01 0.00 0.00 0.00 0.00 0.00 0.00 0.00 0.00
MSLP
1011.79 1011.49 1011.17 1010.85 1010.56 1010.32 1010.10 1009.89 1009.64 1009.34 1008.97 1008.53 1008.02 1007.50 1006.99 1006.54 1006.18 1005.93 1005.82 1005.83 1005.96 1006.16 1006.43 1006.73 1007.05 1007.36 1007.65 1007.92 1008.16 1008.36 1008.54 1008.67 1008.78 1008.86 1008.92 1008.96 1009.01 1009.06 1009.12 1009.19 1009.26 1009.35 1009.44 1009.53
1011.70 1011.36 1010.97 1010.57 1010.20 1009.87 1009.60 1009.36 1009.13 1008.88 1008.60 1008.25 1007.86 1007.43 1006.99 1006.57 1006.21 1005.93 1005.75 1005.68 1005.71 1005.84 1006.05 1006.31 1006.60 1006.90 1007.20 1007.48 1007.74 1007.97 1008.18 1008.35 1008.50 1008.63 1008.75 1008.87 1008.98 1009.10 1009.23 1009.36 1009.49 1009.61 1009.74 1009.87
1011.50 1011.19 1010.83 1010.45 1010.09 1009.78 1009.53 1009.31 1009.13 1008.94 1008.72 1008.45 1008.12 1007.74 1007.32 1006.89 1006.47 1006.11 1005.82 1005.62 1005.53 1005.54 1005.63 1005.81 1006.03 1006.30 1006.58 1006.86 1007.14 1007.40 1007.64 1007.86 1008.07 1008.27 1008.46 1008.65 1008.85 1009.04 1009.23 1009.42 1009.60 1009.78 1009.94 1010.10
1011.31 1011.12 1010.88 1010.62 1010.37 1010.15 1009.98 1009.84 1009.71 1009.58 1009.41 1009.18 1008.87 1008.48 1008.02 1007.52 1007.01 1006.52 1006.08 1005.72 1005.46 1005.30 1005.25 1005.30 1005.43 1005.62 1005.85 1006.12 1006.40 1006.68 1006.97 1007.25 1007.52 1007.80 1008.07 1008.35 1008.62 1008.89 1009.14 1009.39 1009.62 1009.83 1010.04 1010.23
1011.27 1011.27 1011.22 1011.15 1011.07 1011.00 1010.94 1010.90 1010.84 1010.75 1010.60 1010.36 1010.02 1009.58 1009.04 1008.44 1007.79 1007.14 1006.52 1005.97 1005.52 1005.18 1004.96 1004.85 1004.85 1004.94 1005.10 1005.33 1005.60 1005.90 1006.22 1006.55 1006.90 1007.25 1007.61 1007.97 1008.32 1008.65 1008.97 1009.27 1009.55 1009.80 1010.04 1010.27
1011.52 1011.73 1011.90 1012.04 1012.15 1012.24 1012.31 1012.34 1012.33 1012.25 1012.08 1011.80 1011.40 1010.87 1010.23 1009.49 1008.70 1007.89 1007.09 1006.35 1005.71 1005.17 1004.77 1004.49 1004.35 1004.32 1004.39 1004.56 1004.80 1005.10 1005.45 1005.83 1006.23 1006.66 1007.09 1007.53 1007.95 1008.35 1008.73 1009.09 1009.41 1009.71 1009.98 1010.25
1012.12 1012.53 1012.90 1013.23 1013.50 1013.71 1013.86 1013.94 1013.93 1013.82 1013.59 1013.24 1012.74 1012.11 1011.36 1010.51 1009.58 1008.63 1007.68 1006.78 1005.96 1005.26 1004.68 1004.25 1003.96 1003.80 1003.77 1003.87 1004.06 1004.34 1004.69 1005.10 1005.55 1006.03 1006.53 1007.04 1007.53 1008.00 1008.44 1008.85 1009.22 1009.57 1009.89 1010.19
1013.06 1013.61 1014.13 1014.57 1014.92 1015.18 1015.34 1015.39 1015.33 1015.14 1014.83 1014.38 1013.78 1013.06 1012.21 1011.27 1010.26 1009.21 1008.16 1007.15 1006.21 1005.38 1004.67 1004.10 1003.68 1003.40 1003.27 1003.28 1003.41 1003.65 1003.98 1004.39 1004.87 1005.39 1005.94 1006.50 1007.06 1007.59 1008.10 1008.57 1009.00 1009.40 1009.78 1010.13
1014.23 1014.85 1015.40 1015.85 1016.19 1016.40 1016.48 1016.43 1016.26 1015.95 1015.52 1014.97 1014.29 1013.49 1012.60 1011.62 1010.58 1009.50 1008.42 1007.37 1006.38 1005.48 1004.68 1004.02 1003.49 1003.12 1002.89 1002.81 1002.86 1003.05 1003.34 1003.74 1004.21 1004.76 1005.34 1005.95 1006.56 1007.15 1007.72 1008.26 1008.76 1009.23 1009.66 1010.07
1015.47 1016.05 1016.52 1016.87 1017.08 1017.14 1017.06 1016.84 1016.51 1016.06 1015.52 1014.87 1014.14 1013.32 1012.43 1011.47 1010.47 1009.44 1008.40 1007.39 1006.41 1005.50 1004.68 1003.97 1003.38 1002.93 1002.62 1002.45 1002.43 1002.55 1002.79 1003.15 1003.60 1004.14 1004.74 1005.37 1006.03 1006.68 1007.32 1007.93 1008.50 1009.04 1009.54 1010.01
1016.57 1017.00 1017.30 1017.44 1017.42 1017.25 1016.95 1016.54 1016.03 1015.44 1014.79 1014.09 1013.34 1012.55 1011.72 1010.85 1009.95 1009.04 1008.11 1007.19 1006.29 1005.43 1004.64 1003.93 1003.31 1002.81 1002.44 1002.21 1002.11 1002.15 1002.33 1002.63 1003.05 1003.56 1004.15 1004.80 1005.49 1006.19 1006.88 1007.56 1008.21 1008.82 1009.39 1009.92
1017.34 1017.54 1017.58 1017.44 1017.15 1016.72 1016.18 1015.56 1014.89 1014.19 1013.48 1012.76 1012.05 1011.33 1010.61 1009.88 1009.13 1008.37 1007.59 1006.80 1006.02 1005.26 1004.53 1003.85 1003.25 1002.73 1002.32 1002.03 1001.87 1001.84 1001.95 1002.19 1002.55 1003.02 1003.59 1004.23 1004.93 1005.66 1006.41 1007.15 1007.87 1008.55 1009.19 1009.77
1017.67 1017.60 1017.34 1016.91 1016.33 1015.65 1014.90 1014.12 1013.33 1012.57 1011.84 1011.16 1010.52 1009.91 1009.33 1008.75 1008.16 1007.56 1006.94 1006.30 1005.64 1004.99 1004.34 1003.72 1003.14 1002.64 1002.21 1001.88 1001.67 1001.58 1001.62 1001.78 1002.08 1002.49 1003.02 1003.64 1004.34 1005.09 1005.88 1006.67 1007.45 1008.19 1008.89 1009.53
1017.55 1017.19 1016.64 1015.94 1015.13 1014.25 1013.35 1012.47 1011.63 1010.86 1010.18 1009.57 1009.03 1008.54 1008.09 1007.65 1007.21 1006.75 1006.25 1005.73 1005.19 1004.62 1004.05 1003.49 1002.95 1002.46 1002.04 1001.69 1001.44 1001.30 1001.27 1001.37 1001.60 1001.96 1002.43 1003.02 1003.70 1004.45 1005.25 1006.08 1006.91 1007.71 1008.47 1009.16
1017.03 1016.41 1015.63 1014.72 1013.75 1012.75 1011.78 1010.88 1010.07 1009.36 1008.75 1008.24 1007.80 1007.42 1007.07 1006.73 1006.38 1006.00 1005.59 1005.14 1004.66 1004.15 1003.64 1003.12 1002.63 1002.16 1001.75 1001.40 1001.12 1000.95 1000.87 1000.91 1001.07 1001.36 1001.78 1002.32 1002.97 1003.71 1004.51 1005.37 1006.23 1007.08 1007.89 1008.63
1016.24 1015.43 1014.48 1013.45 1012.40 1011.38 1010.44 1009.59 1008.86 1008.24 1007.74 1007.32 1006.97 1006.66 1006.36 1006.06 1005.72 1005.35 1004.95 1004.51 1004.04 1003.56 1003.07 1002.59 1002.12 1001.69 1001.29 1000.95 1000.67 1000.47 1000.36 1000.35 1000.45 1000.68 1001.04 1001.52 1002.13 1002.85 1003.65 1004.51 1005.40 1006.29 1007.15 1007.93
1015.33 1014.39 1013.35 1012.30 1011.27 1010.31 1009.45 1008.72 1008.11 1007.61 1007.20 1006.86 1006.56 1006.26 1005.94 1005.59 1005.21 1004.78 1004.31 1003.82 1003.32 1002.82 1002.33 1001.86 1001.43 1001.02 1000.66 1000.34 1000.07 999.86 999.73 999.68 999.74 999.91 1000.21 1000.64 1001.20 1001.88 1002.67 1003.53 1004.44 1005.36 1006.25 1007.09
1014.41 1013.41 1012.38 1011.37 1010.43 1009.59 1008.87 1008.28 1007.80 1007.41 1007.07 1006.77 1006.45 1006.11 1005.71 1005.26 1004.75 1004.21 1003.63 1003.05 1002.48 1001.94 1001.44 1000.98 1000.57 1000.20 999.88 999.59 999.35 999.16 999.02 998.95 998.96 999.08 999.33 999.71 1000.22 1000.86 1001.62 1002.47 1003.38 1004.32 1005.25 1006.12
1013.56 1012.58 1011.61 1010.70 1009.89 1009.20 1008.64 1008.19 1007.82 1007.50 1007.19 1006.87 1006.49 1006.04 1005.51 1004.91 1004.25 1003.56 1002.85 1002.17 1001.53 1000.95 1000.43 999.99 999.62 999.30 999.03 998.79 998.59 998.42 998.28 998.20 998.19 998.27 998.46 998.79 999.25 999.85 1000.58 1001.41 1002.31 1003.25 1004.19 1005.08
1012.81 1011.88 1011.02 1010.24 1009.57 1009.03 1008.60 1008.26 1007.96 1007.67 1007.35 1006.96 1006.47 1005.89 1005.20 1004.44 1003.62 1002.78 1001.96 1001.19 1000.49 999.89 999.39 998.99 998.67 998.42 998.21 998.04 997.88 997.74 997.62 997.54 997.51 997.56 997.71 997.98 998.40 998.95 999.63 1000.42 1001.29 1002.21 1003.14 1004.03
1012.13 1011.29 1010.54 1009.89 1009.36 1008.94 1008.60 1008.32 1008.04 1007.73 1007.34 1006.85 1006.24 1005.50 1004.67 1003.75 1002.80 1001.85 1000.95 1000.14 999.43 998.85 998.40 998.06 997.82 997.65 997.52 997.41 997.32 997.21 997.12 997.03 996.99 997.01 997.12 997.35 997.71 998.21 998.84 999.58 1000.40 1001.28 1002.17 1003.03
1011.50 1010.76 1010.11 1009.57 1009.14 1008.79 1008.50 1008.22 1007.91 1007.54 1007.05 1006.44 1005.69 1004.82 1003.86 1002.83 1001.80 1000.80 999.88 999.07 998.40 997.89 997.52 997.27 997.12 997.05 997.00 996.97 996.93 996.87 996.79 996.72 996.66 996.66 996.74 996.93 997.24 997.68 998.25 998.92 999.68 1000.49 1001.31 1002.11
1010.91 1010.25 1009.69 1009.23 1008.85 1008.52 1008.22 1007.90 1007.52 1007.04 1006.44 1005.70 1004.83 1003.85 1002.80 1001.71 1000.65 999.65 998.77 998.02 997.45 997.03 996.77 996.63 996.59 996.61 996.65 996.69 996.70 996.67 996.62 996.56 996.50 996.49 996.54 996.69 996.96 997.35 997.85 998.45 999.13 999.85 1000.59 1001.30
1010.37 1009.78 1009.28 1008.85 1008.47 1008.12 1007.77 1007.36 1006.87 1006.27 1005.54 1004.68 1003.71 1002.66 1001.56 1000.46 999.42 998.48 997.67 997.03 996.57 996.28 996.13 996.11 996.17 996.28 996.40 996.49 996.54 996.55 996.52 996.47 996.42 996.40 996.44 996.57 996.80 997.14 997.59 998.12 998.71 999.34 999.98 1000.60
1009.93 1009.39 1008.90 1008.47 1008.06 1007.65 1007.19 1006.67 1006.05 1005.32 1004.47 1003.50 1002.45 1001.35 1000.24 999.17 998.18 997.32 996.62 996.10 995.76 995.59 995.55 995.63 995.78 995.95 996.12 996.26 996.34 996.38 996.37 996.33 996.30 996.29 996.33 996.46 996.67 996.98 997.38 997.85 998.37 998.92 999.46 999.99
1009.64 1009.12 1008.63 1008.15 1007.68 1007.17 1006.60 1005.94 1005.19 1004.33 1003.36 1002.31 1001.20 1000.07 998.96 997.94 997.02 996.25 995.65 995.23 995.00 994.92 994.97 995.11 995.31 995.52 995.72 995.88 995.99 996.04 996.05 996.04 996.03 996.05 996.11 996.25 996.47 996.77 997.14 997.57 998.03 998.52 998.99 999.44
1009.55 1009.02 1008.50 1007.97 1007.40 1006.78 1006.09 1005.30 1004.41 1003.43 1002.36 1001.23 1000.08 998.94 997.85 996.86 996.01 995.31 994.78 994.44 994.27 994.25 994.34 994.51 994.72 994.94 995.14 995.30 995.41 995.48 995.52 995.54 995.56 995.62 995.72 995.89 996.14 996.44 996.81 997.23 997.67 998.12 998.55 998.96
Thickness
5740 5748 5751 5750 5752 5754 5748 5743 5731 5733 5734 5739 5741 5739 5738 5735 5731 5726 5722 5718 5713 5706 5700 5693 5686 5680 5675 5671 5668 5663 5658 5654 5650 5647 5643 5639 5634 5629 5625 5623 5622 5621 5622 5624
5733 5744 5749 5749 5755 5755 5751 5746 5738 5732 5727 5736 5736 5733 5727 5724 5720 5715 5714 5712 5709 5703 5696 5689 5683 5676 5671 5667 5663 5659 5653 5650 5646 5642 5638 5633 5629 5625 5621 5618 5617 5617 5617 5618
5723 5738 5739 5732 5748 5747 5742 5737 5725 5710 5711 5719 5714 5711 5710 5710 5709 5707 5707 5705 5702 5698 5692 5687 5681 5675 5668 5664 5660 5655 5651 5647 5643 5639 5635 5630 5627 5622 5618 5615 5613 5613 5612 5612
5718 5720 5705 5738 5757 5748 5734 5718 5710 5704 5702 5700 5697 5699 5703 5703 5697 5694 5695 5694 5694 5691 5688 5684 5680 5674 5668 5662 5657 5653 5649 5645 5642 5637 5633 5629 5624 5620 5616 5613 5611 5610 5609 5607
5710 5707 5717 5735 5731 5725 5713 5696 5686 5684 5683 5683 5685 5686 5690 5690 5684 5682 5683 5684 5686 5686 5685 5681 5677 5671 5665 5659 5655 5651 5648 5645 5642 5637 5632 5628 5623 5619 5616 5612 5610 5608 5606 5604
5704 5692 5688 5696 5712 5720 5708 5685 5668 5667 5661 5661 5662 5652 5658 5665 5667 5669 5672 5674 5676 5678 5678 5675 5673 5668 5661 5655 5652 5648 5647 5645 5642 5637 5632 5627 5623 5618 5615 5611 5608 5606 5604 5602
5695 5689 5694 5682 5695 5698 5667 5645 5650 5649 5644 5641 5634 5630 5636 5644 5648 5651 5656 5661 5665 5667 5667 5668 5667 5663 5656 5651 5649 5648 5647 5644 5641 5636 5632 5627 5622 5617 5613 5610 5606 5604 5601 5599
5698 5684 5666 5662 5665 5643 5627 5630 5628 5626 5623 5619 5618 5620 5622 5624 5628 5631 5636 5643 5647 5651 5654 5658 5659 5656 5652 5648 5647 5646 5644 5641 5638 5634 5631 5627 5620 5616 5612 5608 5604 5601 5598 5596
5685 5657 5637 5636 5628 5618 5615 5610 5607 5605 5603 5601 5599 5600 5601 5603 5607 5611 5615 5621 5626 5630 5636 5643 5648 5647 5645 5646 5644 5641 5639 5637 5634 5631 5628 5625 5619 5614 5610 5606 5603 5600 5597 5594
5667 5638 5632 5623 5614 5606 5600 5595 5592 5588 5585 5582 5579 5581 5582 5584 5587 5590 5595 5600 5606 5610 5615 5622 5630 5637 5640 5641 5639 5636 5634 5632 5630 5627 5624 5621 5617 5615 5611 5607 5604 5601 5598 5595
5645 5622 5618 5613 5602 5595 5590 5584 5580 5577 5572 5567 5563 5563 5563 5565 5568 5570 5574 5581 5586 5591 5598 5605 5612 5620 5629 5634 5634 5631 5629 5628 5626 5624 5621 5618 5616 5614 5611 5610 5608 5604 5601 5599
5607 5598 5590 5589 5586 5579 5573 5569 5566 5563 5560 5557 5551 5546 5545 5546 5547 5549 5553 5560 5567 5574 5582 5589 5594 5604 5613 5623 5627 5626 5624 5623 5622 5621 5619 5616 5612 5607 5602 5604 5603 5603 5602 5601
5590 5585 5577 5574 5572 5568 5563 5560 5556 5551 5546 5543 5540 5535 5530 5529 5529 5531 5535 5541 5549 5558 5566 5574 5581 5588 5597 5608 5617 5620 5620 5620 5619 5618 5616 5614 5611 5607 5600 5594 5594 5596 5597 5596
5583 5576 5571 5568 5566 5562 5556 5552 5548 5543 5538 5534 5530 5526 5523 5520 5519 5519 5521 5525 5532 5542 5552 5560 5569 5576 5583 5593 5604 5612 5614 5615 5615 5614 5614 5612 5610 5607 5604 5599 5594 5590 5587 5586
5577 5571 5566 5563 5560 5555 5549 5544 5539 5536 5532 5529 5525 5521 5517 5514 5512 5512 5513 5516 5520 5528 5539 5548 5556 5564 5573 5581 5593 5603 5608 5611 5612 5612 5612 5610 5609 5607 5604 5601 5598 5593 5585 5576
5571 5566 5560 5555 5550 5545 5540 5536 5532 5529 5526 5523 5519 5515 5511 5508 5506 5506 5506 5507 5511 5519 5528 5537 5546 5554 5562 5570 5582 5593 5602 5607 5609 5609 5609 5609 5608 5607 5605 5601 5598 5595 5589 5581
5559 5553 5547 5541 5537 5534 5531 5528 5525 5523 5520 5516 5512 5508 5504 5501 5499 5499 5500 5502 5505 5512 5520 5529 5538 5547 5554 5561 5571 5583 5596 5602 5603 5606 5607 5608 5608 5607 5605 5602 5599 5596 5592 5586
5547 5540 5533 5527 5525 5524 5523 5521 5518 5515 5512 5508 5504 5499 5494 5492 5491 5493 5495 5497 5501 5507 5515 5523 5532 5540 5547 5555 5564 5576 5589 5599 5601 5603 5604 5605 5606 5605 5604 5602 5599 5596 5593 5586
5536 5529 5524 5520 5517 5516 5515 5513 5511 5508 5504 5499 5494 5490 5487 5485 5486 5487 5489 5492 5495 5502 5511 5519 5525 5533 5541 5551 5559 5571 5584 5595 5600 5600 5602 5602 5602 5603 5603 5601 5599 5596 5593 5587
5526 5520 5517 5514 5512 5510 5508 5507 5505 5502 5497 5492 5487 5484 5483 5482 5481 5483 5485 5488 5493 5500 5507 5514 5522 5530 5538 5546 5555 5567 5581 5591 5598 5599 5599 5600 5600 5600 5600 5600 5598 5596 5593 5588
5517 5513 5510 5509 5508 5507 5506 5503 5500 5496 5492 5487 5482 5479 5478 5478 5478 5480 5483 5488 5495 5499 5505 5511 5519 5528 5536 5542 5551 5563 5577 5587 5593 5597 5597 5599 5599 5598 5599 5598 5597 5596 5594 5591
5510 5508 5506 5505 5505 5505 5505 5502 5497 5493 5488 5484 5480 5476 5474 5475 5478 5480 5484 5488 5494 5497 5503 5511 5519 5525 5533 5538 5550 5560 5572 5582 5590 5594 5597 5598 5599 5597 5597 5598 5598 5597 5595 5593
5506 5505 5504 5503 5503 5505 5505 5501 5497 5491 5487 5483 5479 5476 5475 5474 5476 5479 5486 5491 5494 5497 5503 5511 5518 5522 5529 5537 5546 5556 5566 5576 5585 5591 5595 5597 5598 5598 5598 5598 5599 5598 5596 5594
5504 5504 5502 5503 5504 5504 5503 5501 5496 5492 5488 5484 5482 5479 5478 5479 5482 5484 5486 5489 5491 5494 5502 5509 5514 5520 5526 5535 5543 5553 5563 5572 5581 5589 5593 5596 5598 5600 5600 5599 5599 5599 5598 5596
5502 5501 5501 5501 5502 5502 5500 5498 5496 5493 5491 5488 5487 5486 5484 5484 5485 5487 5488 5491 5494 5496 5504 5510 5513 5519 5527 5535 5543 5552 5561 5571 5579 5586 5592 5595 5598 5600 5601 5601 5600 5599 5598 5597
5498 5498 5498 5497 5498 5497 5497 5495 5493 5491 5490 5490 5491 5491 5490 5491 5492 5492 5492 5495 5498 5500 5506 5514 5519 5522 5531 5538 5546 5553 5561 5570 5577 5584 5590 5593 5596 5599 5600 5600 5600 5599 5599 5597
5496 5496 5496 5497 5498 5496 5495 5492 5491 5491 5490 5490 5492 5494 5495 5497 5497 5498 5497 5499 5502 5506 5511 5518 5526 5532 5538 5544 5550 5557 5563 5571 5578 5584 5589 5592 5595 5597 5599 5599 5600 5599 5598 5597